Regional Weather Roundup
Issued by NWS

Home | Current Version | Previous Version | Graphics & Text | Print | Product List | Glossary On
Versions: 1 2 3 4 5 6 7 8 9 10 11 12 13 14 15 16 17 18 19 20 21 22 23 24 25 26 27 28 29 30 31 32 33 34 35 36 37 38 39 40 41 42 43 44 45 46 47 48 49 50
000
ASUS43 KDMX 220106
RWRIA

WEATHER ROUNDUP FOR IOWA
NATIONAL WEATHER SERVICE DES MOINES IA
700 PM CST WED FEB 21 2018

NOTE: "FAIR" INDICATES FEW OR NO CLOUDS BELOW 12,000 FEET WITH NO
SIGNIFICANT WEATHER AND/OR OBSTRUCTIONS TO VISIBILITY.

* - THESE STATIONS ARE NOT NWS STATIONS...THUS NOT UNDER NWS
QUALITY CONTROL.  THEY ALSO DO NOT REPORT WEATHER SUCH
AS PRECIPITATION OR FOG.

IAZ001>003-012>014-020>022-031>034-043>046-220200-
   NORTHWEST IOWA

CITY           SKY/WX    TMP DP  RH WIND       PRES   REMARKS
CARROLL *      FAIR      21  12  68 E9        30.59S WCI  11
CHEROKEE *     FAIR      20  14  77 SE3       30.59S
DENISON *      CLOUDY    21  14  73 E8        30.59F WCI  12
LE MARS *      FAIR      18  10  73 CALM      30.59S
ORANGE CITY *  FAIR      16  10  79 CALM      30.57S
SHELDON *      FAIR      14   9  79 SE3       30.57R
SIOUX CITY     MOCLDY    19   8  62 NE5       30.59R WCI  12
SPENCER        MIX PCPN  17   9  70 E6        30.60R WCI   9
STORM LAKE *   FAIR      18  10  73 SE7       30.57F WCI   8
$$

IAZ055>058-069>071-079>083-090>094-220200-
   SOUTHWEST IOWA

CITY           SKY/WX    TMP DP  RH WIND       PRES   REMARKS
ATLANTIC *     CLOUDY    23  16  74 NE7G13    30.57S WCI  15
AUDUBON *      FAIR      21  16  79 CALM      30.56F
CLARINDA *     CLOUDY    27  21  80 NE9       30.58F WCI  17
COUNCIL BLFS * CLOUDY    23  19  86 MISG      30.55F
CRESTON *      CLOUDY    23  18  80 NE10      30.56F WCI  12
HARLAN  *      CLOUDY    21  16  79 NE9       30.60F WCI  11
LAMONI         CLOUDY    25  19  78 NE10      30.55S WCI  15
RED OAK *      CLOUDY    25  19  80 NE8       30.57S WCI  16
SHENANDOAH *   CLOUDY    27  19  74 NE10      30.57S WCI  17
$$

IAZ047>049-059>061-072>074-084-220200-
   CENTRAL IOWA

CITY           SKY/WX    TMP DP  RH WIND       PRES   REMARKS
AMES           FAIR      22  15  75 NE7       30.60F WCI  13
ANKENY *       FAIR      23  16  74 NE10      30.62S WCI  12
BOONE *        FAIR      21  16  79 NE10      30.59F WCI  10
CHARITON *     FAIR      25  21  86 NE9       30.56F WCI  15
DES MOINES     CLOUDY    24  15  68 NE8       30.60S WCI  15
GRINNELL*      FAIR      24  18  77 NE12      30.61F WCI  13
KNOXVILLE *    MOCLDY    25  18  74 NE9       30.57F WCI  15
MARSHALLTOWN   FAIR      22  16  78 NE8       30.61S WCI  12
NEWTON *       FAIR      23  16  74 NE13      30.59F WCI  11
PELLA *        FAIR      25  19  76 NE3       30.61F
PERRY *        FAIR      22  17  79 NE8       30.60F WCI  13
$$

IAZ004>006-015-016-023>025-035-036-220200-
   NORTH CENTRAL IOWA

CITY           SKY/WX    TMP DP  RH WIND       PRES   REMARKS
ALGONA *       MOCLDY    21 N/A N/A CALM      30.61R
CLARION *      MOCLDY    21  16  79 E5        30.63R WCI  15
ESTHERVILLE    MOCLDY    15   8  73 SE5       30.60R WCI   8
FORT DODGE *   FAIR      17  12  80 E6        30.62R WCI   9
MASON CITY     CLOUDY    21  12  68 NE6       30.63R WCI  13
FOREST CITY *  CLOUDY    21  14  73 CALM      30.62R
WEBSTER CITY * FAIR      19  12  73 NE5       30.59F WCI  13
IOWA FALLS *   FAIR      22  16  79 NE3       30.62F
$$

IAZ007>011-017>019-026>030-037>042-050>054-066-220200-
   NORTHEAST IOWA

CITY           SKY/WX    TMP DP  RH WIND       PRES   REMARKS
CEDAR RAPIDS   FAIR      25  13  60 NE8       30.61S WCI  16
CHARLES CITY * FAIR      21  14  73 NE5       30.62F WCI  15
CLINTON *      FAIR      26  20  77 NE7       30.65R WCI  18
DECORAH *      FAIR      21  12  68 CALM      30.62S
DUBUQUE        FAIR      23  12  62 N7        30.63R WCI  15
MONTICELLO *   FAIR      25  16  68 NE5       30.64S WCI  19
OELWEIN *      FAIR      23  18  80 NE7       30.63S WCI  15
WATERLOO       FAIR      21  14  74 NE6       30.64R WCI  13
$$

IAZ064-065-067-068-078-220200-
   EAST CENTRAL IOWA

CITY           SKY/WX    TMP DP  RH WIND       PRES   REMARKS
DAVENPORT      FAIR      27  18  69 NE8       30.64F WCI  19
IOWA CITY      FAIR      28  14  55 NE8       30.64F WCI  20
MT. PLEASANT * FAIR      28  19  69 NE14      30.60S WCI  17
MUSCATINE *    FAIR      28  19  69 NE9       30.64S WCI  20
QUAD CITIES    FAIR      28  18  66 NE8       30.62F WCI  20
$$

IAZ062-063-075>077-085>089-095>099-220200-
   SOUTHEAST IOWA

CITY           SKY/WX    TMP DP  RH WIND       PRES   REMARKS
BURLINGTON     FAIR      27  18  69 NE13      30.59S WCI  16
FAIRFIELD *    MOCLDY    27  16  63 NE12      30.59S WCI  16
FORT MADISON * FAIR      27  21  80 N6        30.60R WCI  20
KEOKUK *       FAIR      28  19  69 NE6       30.59R WCI  22
OSKALOOSA *    FAIR      25  19  77 NE9       30.59F WCI  16
OTTUMWA        FAIR      26  16  65 NE14      30.58F WCI  14
WASHINGTON *   FAIR      27  19  74 NE14      30.62S WCI  15
$$

ABBREVIATIONS USED IN REMARKS
   TC - TEMPERATURES IN CELSIUS
  WCI - WIND CHILL INDEX
   HX - HEAT INDEX
  VSB - VISIBILITY
$$





USA.gov is the U.S. government's official web portal to all federal, state and local government web resources and services.